TimePST,TemperatureF,Dew PointF,Humidity,Sea Level PressureIn,VisibilityMPH,Wind Direction,Wind SpeedMPH,Gust SpeedMPH,PrecipitationIn,Events,Conditions,WindDirDegrees,DateUTC
12:56 AM,63.0,55.0,75,30.06,10.0,SE,12.7,20.7,0.00,,Overcast,140,2012-11-21 08:56:00
1:03 AM,62.6,55.4,77,30.05,10.0,SE,12.7,18.4,N/A,,Overcast,140,2012-11-21 09:03:00
1:56 AM,62.1,55.0,78,30.06,10.0,SE,12.7,19.6,0.01,Rain,Light Rain,140,2012-11-21 09:56:00
2:56 AM,61.0,55.9,83,30.06,10.0,SE,8.1,-,0.00,Rain,Light Rain,140,2012-11-21 10:56:00
3:56 AM,60.1,55.0,83,30.06,10.0,SE,10.4,-,0.00,,Overcast,130,2012-11-21 11:56:00
4:56 AM,59.0,57.0,93,30.07,3.0,Calm,Calm,-,0.07,Rain,Rain,0,2012-11-21 12:56:00
5:03 AM,59.0,57.2,94,30.07,2.5,Calm,Calm,-,0.04,Rain,Heavy Rain,0,2012-11-21 13:03:00
5:28 AM,59.0,57.2,94,30.08,4.0,Calm,Calm,-,0.15,Rain,Rain,0,2012-11-21 13:28:00
5:56 AM,59.0,57.0,93,30.10,4.0,Calm,Calm,-,0.17,Rain,Light Rain,0,2012-11-21 13:56:00
6:04 AM,59.0,57.2,94,30.10,3.0,Calm,Calm,-,0.00,Rain,Light Rain,0,2012-11-21 14:04:00
6:11 AM,59.0,57.2,94,30.10,2.0,Calm,Calm,-,0.01,Rain,Light Rain,0,2012-11-21 14:11:00
6:25 AM,59.0,57.2,94,30.11,4.0,NNW,4.6,-,0.02,Rain,Light Rain,330,2012-11-21 14:25:00
6:56 AM,57.9,57.0,97,30.13,4.0,North,4.6,-,0.04,Rain,Light Rain,350,2012-11-21 14:56:00
7:37 AM,57.2,57.2,100,30.14,2.5,North,3.5,-,0.02,Rain,Light Rain,350,2012-11-21 15:37:00
7:42 AM,59.0,57.2,94,30.14,1.8,NNW,3.5,-,0.02,Rain,Light Rain,340,2012-11-21 15:42:00
7:56 AM,59.0,57.9,96,30.16,2.0,North,5.8,-,0.03,Rain,Light Rain,350,2012-11-21 15:56:00
8:07 AM,57.2,57.2,100,30.15,4.0,Calm,Calm,-,0.00,Rain,Light Rain,0,2012-11-21 16:07:00
8:38 AM,59.0,57.2,94,30.17,10.0,Calm,Calm,-,0.00,,Overcast,0,2012-11-21 16:38:00
8:56 AM,59.0,57.0,93,30.18,10.0,Calm,Calm,-,0.00,,Overcast,0,2012-11-21 16:56:00
9:13 AM,60.8,57.2,88,30.18,10.0,Calm,Calm,-,N/A,,Overcast,0,2012-11-21 17:13:00
9:56 AM,62.1,57.9,86,30.19,10.0,ENE,3.5,-,N/A,,Scattered Clouds,70,2012-11-21 17:56:00
10:08 AM,62.6,57.2,82,30.19,10.0,ENE,3.5,-,N/A,,Mostly Cloudy,60,2012-11-21 18:08:00
10:20 AM,62.6,57.2,82,30.19,10.0,Calm,Calm,-,N/A,,Overcast,0,2012-11-21 18:20:00
10:46 AM,62.6,57.2,82,30.19,10.0,NNE,4.6,-,N/A,,Scattered Clouds,20,2012-11-21 18:46:00
10:56 AM,62.1,57.0,84,30.20,10.0,NNE,4.6,-,N/A,,Mostly Cloudy,30,2012-11-21 18:56:00
11:20 AM,62.6,57.2,82,30.19,10.0,NNE,3.5,-,N/A,,Mostly Cloudy,30,2012-11-21 19:20:00
11:31 AM,62.6,57.2,82,30.18,10.0,NE,4.6,-,N/A,,Mostly Cloudy,40,2012-11-21 19:31:00
11:40 AM,64.4,57.2,77,30.18,10.0,NE,4.6,-,N/A,,Scattered Clouds,40,2012-11-21 19:40:00
11:56 AM,64.0,55.9,75,30.18,10.0,NNE,5.8,-,N/A,,Partly Cloudy,30,2012-11-21 19:56:00
12:56 PM,64.9,54.0,68,30.17,10.0,NNW,11.5,-,N/A,,Scattered Clouds,340,2012-11-21 20:56:00
1:56 PM,62.1,52.0,70,30.17,10.0,NNW,12.7,-,N/A,,Mostly Cloudy,340,2012-11-21 21:56:00
2:56 PM,63.0,53.1,70,30.17,10.0,NNW,9.2,18.4,N/A,,Clear,330,2012-11-21 22:56:00
3:56 PM,63.0,48.9,60,30.17,10.0,NW,9.2,-,N/A,,Clear,320,2012-11-21 23:56:00
4:56 PM,60.1,48.0,64,30.17,10.0,WNW,5.8,-,N/A,,Clear,300,2012-11-22 00:56:00
5:56 PM,57.9,46.0,65,30.19,10.0,NW,5.8,-,N/A,,Clear,310,2012-11-22 01:56:00
6:56 PM,55.9,45.0,67,30.20,10.0,WNW,4.6,-,N/A,,Clear,290,2012-11-22 02:56:00
7:56 PM,55.0,45.0,69,30.22,10.0,WNW,3.5,-,N/A,,Clear,290,2012-11-22 03:56:00
8:56 PM,54.0,45.0,72,30.22,10.0,WSW,3.5,-,N/A,,Clear,240,2012-11-22 04:56:00
9:56 PM,52.0,44.1,74,30.23,10.0,Calm,Calm,-,N/A,,Clear,0,2012-11-22 05:56:00
10:56 PM,51.1,44.1,77,30.24,10.0,Calm,Calm,-,N/A,,Clear,0,2012-11-22 06:56:00
11:56 PM,48.9,41.0,74,30.23,10.0,Calm,Calm,-,N/A,,Clear,0,2012-11-22 07:56:00